Meteo Giornale » Osservazioni meteo Stati Uniti (USA) » White Plains Westchester

ore: 14:03 - Osservazioni Meteo White Plains Westchester
Lat. 41° 4' N Lon. 73° 42' W Alt. 134 metri s.l.m.

foschia

24 °C

Foschia

Temp. 24 Ore

20 °C

24 °C

Nord

5.5 Km/h

Dew point 23 °C

Umidità 94 %

Visibilità  2 Km

Il sole sorge alle ore 06:21

Il sole tramonta alle ore 19:27

Data e Ora Cielo e Fenomeni T °C DP °C Um. % Pres. hPa Vis. km Vento km/h
Oggi h: 14:03 foschia Foschia 24 23 94 1015 2 N 5.5
Oggi h: 13:56 foschia Foschia 23 22 94 1014 2 S/SE 9.3
Oggi h: 12:56 foschia Foschia 22 22 100 1015 2 N 5.5
Oggi h: 11:56 coperto_pioggia Pioggia Foschia 22 22 100 1016 2 N 5.5
Oggi h: 10:56 coperto_pioggia Pioggia Foschia 22 21 94 1016 2 S/SE 7.4
Oggi h: 09:56 foschia Foschia 21 21 100 1016 2 N 5.5
Oggi h: 09:37 coperto_pioggia Pioggia Foschia 21 21 100 1016 2 N 5.5
Oggi h: 08:56 foschia Foschia 21 21 100 1016 2 N 0
Oggi h: 08:54 foschia Foschia 21 21 100 1016 2 N 5.5
Oggi h: 07:56 coperto_pioggia Pioggia Foschia 21 21 100 1016 2 N 0
Oggi h: 07:23 foschia Foschia 21 20 94 1016 2 S/SE 7.4
Oggi h: 07:10 foschia Foschia 21 20 94 1016 2 N 0
Oggi h: 06:56 foschia Foschia 21 20 94 1016 2 N 0
Oggi h: 06:17 foschia Foschia 20 20 100 1016 2 N 5.5
Oggi h: 05:56 coperto Coperto 20 20 100 1016 2 N 0
Oggi h: 04:56 foschia Foschia 20 20 100 1016 8 N 0
Oggi h: 03:56 foschia Foschia 20 20 100 1016 8 N 5.5
Oggi h: 03:14 foschia Foschia 20 20 100 1017 10 SE 7.4
Oggi h: 02:56 coperto Coperto 20 19 93 1017 14 SE 7.4
Oggi h: 02:41 foschia Foschia 20 19 93 1017 10 S/SE 9.3
Oggi h: 02:28 coperto_pioggia Pioggia Foschia 20 19 93 1017 5 N 0
Oggi h: 02:21 coperto_pioggia Pioggia Foschia 20 19 93 1017 2 N 0
Oggi h: 01:56 coperto_pioggia Pioggia Foschia 20 19 93 1017 2 S/SE 9.3
Oggi h: 01:34 coperto_pioggia Pioggia Foschia 20 19 93 1017 5 S/SE 9.3
Oggi h: 01:27 coperto_pioggia Pioggia Foschia 20 20 100 1017 5 S/SE 13
Oggi h: 01:03 coperto_pioggia Pioggia Foschia 20 19 93 1017 5 S/SE 7.4
Oggi h: 00:58 coperto_pioggia Pioggia Foschia 20 19 93 1018 5 N 5.5
Oggi h: 00:56 coperto_pioggia Pioggia Foschia 20 19 93 1018 5 N 0
Oggi h: 00:49 coperto_pioggia Pioggia Foschia 20 20 100 1018 5 N 0
Oggi h: 00:44 coperto_pioggia Pioggia Foschia 20 20 100 1018 3 N 0
Oggi h: 00:26 coperto_pioggia Pioggia Foschia 21 19 88 1018 5 N 0
Oggi h: 00:19 coperto_pioggia Pioggia Foschia 21 19 88 1018 5 N 0
Ieri h: 23:56 coperto Coperto 21 19 88 1018 10 N 5.5
Ieri h: 23:05 coperto Coperto 21 19 88 1018 10 N 5.5
Ieri h: 22:56 coperto Coperto 21 19 88 1018 10 SE 7.4
Ieri h: 22:43 coperto Coperto 21 19 88 1018 10 S 9.3
Ieri h: 21:56 coperto Coperto 21 19 88 1018 10 S/SE 7.4
Ieri h: 21:22 coperto Coperto 21 19 88 1018 10 S/SE 7.4
Ieri h: 21:15 coperto Coperto 21 18 82 1018 10 S/SE 7.4
Ieri h: 20:56 coperto Coperto 21 18 82 1018 10 S/SE 7.4
Ieri h: 19:56 coperto Coperto 21 18 82 1018 10 S/SE 7.4
Ieri h: 18:56 coperto Coperto 22 18 78 1019 10 N 5.5
Ieri h: 17:56 coperto Coperto 22 19 83 1019 10 S/SE 9.3
Ieri h: 17:34 coperto Coperto 22 18 78 1019 10 S/SE 7.4
Ieri h: 16:56 coperto Coperto 23 18 73 1019 10 S/SE 9.3
Ieri h: 15:56 molto_nuvoloso Molto Nuvoloso 24 17 64 1019 10 SE 9.3
Ieri h: 14:56 molto_nuvoloso Molto Nuvoloso 24 17 64 1019 10 N 7.4